Regional Weather Roundup
Issued by NWS Cleveland, OH

Home | Current Version | Previous Version | Text Only | Print | Product List | Glossary On
Versions: 1 2 3 4 5 6 7 8 9 10 11 12 13 14 15 16 17 18 19 20 21 22 23 24 25 26 27 28 29 30 31 32 33 34 35 36 37 38 39 40 41 42 43 44 45 46 47 48 49 50
000
ASUS41 KCLE 081112
RWRCLE
OHIO REGIONAL WEATHER ROUNDUP
NATIONAL WEATHER SERVICE WILMINGTON, OH
700 AM EDT SAT MAY 08 2021

NOTE: "FAIR" INDICATES FEW OR NO CLOUDS BELOW 12,000 FEET WITH NO
SIGNIFICANT WEATHER AND/OR OBSTRUCTIONS TO VISIBILITY.

OHZ001>008-015>018-024>027-034-035-043-044-081200-
   NORTHWEST OHIO

CITY           SKY/WX    TMP DP  RH WIND       PRES   REMARKS
DEFIANCE       FAIR      36  30  79 NW8       30.07R
FINDLAY        FAIR      37  31  78 NW8       30.04R
TOLEDO EXPRESS CLOUDY    38  31  76 NW7       30.04R
TOLEDO EXEC    CLOUDY    40  33  76 NW9       30.04R
LIMA           FAIR      36  31  82 NW7       30.06R
$$

OHZ009>014-019>023-028>033-038-089-081200-
   NORTHEAST OHIO

CITY           SKY/WX    TMP DP  RH WIND       PRES   REMARKS
CLE-HOPKINS    LGT RAIN  41  35  79 NW13      29.95R
CLE-LAKEFRONT  LGT RAIN  44  38  79 NW22G31   29.96R
CUY CO. ARPT   CLOUDY    41  36  81 NW10G18   29.95S
LORAIN-ELYRIA  CLOUDY    42  35  76 N12       29.99R
ASHTABULA      LGT RAIN  40  38  93 NW5       29.93R
AKRON-CANTON   CLOUDY    42  36  79 NW13      29.94R
WOOSTER        CLOUDY    40  36  86 NW12      29.97R
MANSFIELD      CLOUDY    39  34  82 W6        29.98R
YOUNGSTOWN     CLOUDY    41  37  86 NW12G20   29.91R
$$

OHZ042-051>053-060>062-070>072-077>081-081200-
  SOUTHWEST OHIO

CITY           SKY/WX    TMP DP  RH WIND       PRES   REMARKS
CINC-COVINGTON FAIR      37  32  82 W5        30.09R
CINC-LUNKEN    FAIR      38  35  89 S3        30.11R
HAMILTON       FAIR      35  34  96 NW5       30.10R
DAYTON         FAIR      37  30  75 NW7       30.08R
WRIGHT-PAT AFB FAIR      37  32  81 NW8       30.07R
DAYTON GENERAL FAIR      37  32  82 CALM      30.07R
WILMINGTON     FAIR      37  32  82 NW6       30.06R
$$

OHZ036-037-039>041-045>050-054>059-063>069-073>076-082>088-081200-
  CENTRAL AND SOUTHEAST OHIO

CITY           SKY/WX    TMP DP  RH WIND       PRES   REMARKS
COLUMBUS       FAIR      38  34  85 NW10      30.03R
OSU AIRPORT    FAIR      37  33  85 NW7       30.04R
BOLTON FIELD   FAIR      37  33  89 NW6       30.05R
RICKENBACK AFB FAIR      38  33  84 NW7       30.04R
NEWARK         MOCLDY    39  35  86 NW7       30.00R
MARION         CLOUDY    38  32  79 NW10      30.03R
LANCASTER      FAIR      38  35  89 NW7       30.03R
ZANESVILLE     FAIR      39  37  92 NW5       29.99R
NEW PHILLY     CLOUDY    43  38  82 NW9       29.97R
$$



USA.gov is the U.S. government's official web portal to all federal, state and local government web resources and services.